User: anonymous
Location: Unspecified
(0.0000°N, 0.0000°E)
Time: 19:44:05
(UTC+02:00)
Language:

Hamsat - Orbit

View from above orbital plane
View from above orbital plane
View from above satellite
View from above satellite

Ground track
Ground track

The orbit data is extracted from the following two-line orbital elements,

1 28650U 05017B   14260.76448858  .00001833  00000-0  21571-3 0  8440
2 28650 097.5635 261.1311 0024319 208.8451 151.1422 14.85773741506970
Epoch (UTC): 17 September 2014 18:20:51
Eccentricity: 0.0024319
inclination: 97.5635°
perigee height: 594 km
apogee height: 628 km
right ascension of ascending node: 261.1311°
argument of perigee: 208.8451°
revolutions per day: 14.85773741
mean anomaly at epoch: 151.1422°
orbit number at epoch: 50697

The dashed part of the orbit path shows where the satellite is in the earth's shadow,  

DLR